Location: Czekanka
(50.4925°N, 19.2643°E)
Time: 01:42:26
(UTC+00:00)

ADEOS II - Pass Details

Date: 19 September 2024
Orbit: 795 x 798 km, 98.7° (Epoch: 09 October)

Event Time Altitude Azimuth Distance (km) Brightness Sun altitude
Rises 01:24:47 0° 14° (NNE) 3,312 6.1 -27.0°
Reaches altitude 10° 01:27:07 10° 14° (NNE) 2,377 5.2 -26.7°
Maximum altitude 01:32:23 86° 286° (WNW) 805 1.9 -26.1°
Enters shadow 01:32:37 81° 226° (SW) 811 1.9 -26.1°
